M I D A S
Marine Information and Data Acquisition System
Tripno 351 of the Zeeleeuw from 2002-10-29 09:26:45 to 2002-10-29 16:50:00
Back to CruiseResearch ActivitiesStationsMapUnderway DataData graphs

EquipmentUnitsComments
TimeDGPSUTC
LatitudeDGPSDM.mWGS84
LongitudeDGPSDM.mWGS84
SpeedMeteo Stationm/sRelative wind speed
DirectionMeteo StationdegRelative wind direction
TemperatureMeteo Stationdeg CelciusAir temperature
PressureMeteo StationPaAtmospheric pressure
HumidityMeteo Station%Relative humidity
Missing or incorrect values are displayed as -999
Metereological data collected by the RV Zeeleeuw from 2002-10-29 09:26:45 to 2002-10-29 16:50:00
                                                                                    Next 1000 lines
Time Latitude Longitude Speed Direction Temperature Pressure Humidity
2002-10-29 09:26:52 51°13.685 2°55.838 3.3 157 9.7 102020 75
2002-10-29 09:26:57 51°13.686 2°55.831 2.9 151 9.7 102020 75
2002-10-29 09:27:02 51°13.687 2°55.825 3.2 161 9.7 102020 75
2002-10-29 09:27:07 51°13.688 2°55.818 2.4 161 9.7 102020 75
2002-10-29 09:27:12 51°13.688 2°55.812 2.3 156 9.7 102020 75
2002-10-29 09:27:17 51°13.689 2°55.806 1.9 144 9.7 102020 75
2002-10-29 09:27:21 51°13.689 2°55.801 2.1 135 9.7 102020 75
2002-10-29 09:27:26 51°13.689 2°55.795 2.4 142 9.7 102020 75
2002-10-29 09:27:31 51°13.689 2°55.789 2.2 144 9.7 102020 75
2002-10-29 09:27:36 51°13.689 2°55.784 1.8 136 9.7 102020 74
2002-10-29 09:27:41 51°13.689 2°55.778 1.6 145 9.7 102020 74
2002-10-29 09:27:46 51°13.689 2°55.773 1.5 138 9.7 102020 74
2002-10-29 09:27:51 51°13.689 2°55.771 1.8 129 9.7 102020 74
2002-10-29 09:27:56 51°13.69 2°55.77 1.8 171 9.7 102020 75
2002-10-29 09:28:01 51°13.691 2°55.771 3.2 162 9.7 102020 75
2002-10-29 09:28:06 51°13.692 2°55.774 2.9 158 9.7 102020 75
2002-10-29 09:28:10 51°13.694 2°55.778 3.2 162 9.7 102020 75
2002-10-29 09:28:15 51°13.698 2°55.782 3.8 154 9.7 102020 75
2002-10-29 09:28:21 51°13.705 2°55.787 4 120 9.7 102020 75
2002-10-29 09:28:26 51°13.711 2°55.789 3.8 118 9.7 102020 75
2002-10-29 09:28:30 51°13.717 2°55.79 2.9 92 9.7 102020 75
2002-10-29 09:28:36 51°13.726 2°55.788 2.7 67 9.7 102020 75
2002-10-29 09:28:41 51°13.734 2°55.784 1.7 49 9.7 102020 75
2002-10-29 09:28:46 51°13.741 2°55.778 1 45 9.7 102020 75
2002-10-29 09:28:51 51°13.749 2°55.767 0.6 351 9.7 102020 75
2002-10-29 09:28:56 51°13.755 2°55.755 1.4 299 9.7 102020 75
2002-10-29 09:29:01 51°13.761 2°55.741 2.4 282 9.7 102020 75
2002-10-29 09:29:06 51°13.768 2°55.727 1.4 316 9.7 102030 74
2002-10-29 09:29:10 51°13.773 2°55.716 1.5 316 9.7 102030 74
2002-10-29 09:29:16 51°13.781 2°55.7 0.9 313 9.7 102020 74
2002-10-29 09:29:21 51°13.787 2°55.686 1.9 270 9.7 102020 74
2002-10-29 09:29:26 51°13.794 2°55.673 1.5 337 9.7 102020 75
2002-10-29 09:29:31 51°13.802 2°55.662 0.4 330 9.7 102020 75
2002-10-29 09:29:36 51°13.811 2°55.651 0.4 330 9.7 102020 75
2002-10-29 09:29:41 51°13.82 2°55.641 0.3 333 9.7 102020 75
2002-10-29 09:29:46 51°13.829 2°55.631 0.5 345 9.7 102020 75
2002-10-29 09:29:51 51°13.838 2°55.622 0.3 345 9.7 102020 75
2002-10-29 09:29:56 51°13.847 2°55.613 0.1 356 9.7 102020 75
2002-10-29 09:30:01 51°13.857 2°55.605 0.3 106 9.7 102020 75
2002-10-29 09:30:06 51°13.867 2°55.598 0.8 202 9.7 102020 75
2002-10-29 09:30:11 51°13.877 2°55.59 0.9 225 9.7 102020 75
2002-10-29 09:30:16 51°13.887 2°55.583 0.6 204 9.8 102020 75
2002-10-29 09:30:21 51°13.897 2°55.576 0.4 110 9.8 102020 75
2002-10-29 09:30:26 51°13.907 2°55.568 0.5 153 9.8 102020 75
2002-10-29 09:30:31 51°13.917 2°55.561 0.7 193 9.8 102020 75
2002-10-29 09:30:36 51°13.928 2°55.554 0.4 233 9.8 102020 75
2002-10-29 09:30:41 51°13.938 2°55.547 0.8 261 9.8 102020 75
2002-10-29 09:30:46 51°13.948 2°55.54 1 296 9.8 102020 75
2002-10-29 09:30:51 51°13.959 2°55.533 0.7 298 9.8 102020 75
2002-10-29 09:30:56 51°13.969 2°55.525 0.7 297 9.8 102020 75
2002-10-29 09:31:01 51°13.98 2°55.518 0.4 305 9.8 102020 75
2002-10-29 09:31:06 51°13.99 2°55.511 0.2 304 9.8 102020 75
2002-10-29 09:31:11 51°14 2°55.503 0.1 334 9.8 102020 75
2002-10-29 09:31:16 51°14.011 2°55.496 0.1 344 9.8 102020 75
2002-10-29 09:31:21 51°14.021 2°55.49 0.1 342 9.8 102020 75
2002-10-29 09:31:26 51°14.032 2°55.483 0.1 342 9.9 102020 75
2002-10-29 09:31:31 51°14.042 2°55.477   344 9.9 102020 75
2002-10-29 09:31:36 51°14.052 2°55.471 0.2 359 9.9 102020 75
2002-10-29 09:31:41 51°14.061 2°55.465 0.5 41 9.9 102020 75
2002-10-29 09:31:46 51°14.071 2°55.459 0.9 71 9.9 102020 75
2002-10-29 09:31:50 51°14.078 2°55.454 1.2 68 9.9 102020 75
2002-10-29 09:31:56 51°14.089 2°55.447 1 66 9.9 102010 75
2002-10-29 09:32:01 51°14.097 2°55.442 1 65 9.9 102010 75
2002-10-29 09:32:06 51°14.106 2°55.436 0.9 79 9.9 102010 75
2002-10-29 09:32:11 51°14.114 2°55.43 1.7 99 9.9 102010 75
2002-10-29 09:32:14 51°14.119 2°55.427 1.7 102 9.9 102010 75
2002-10-29 09:32:21 51°14.13 2°55.419 1.3 97 9.9 102010 75
2002-10-29 09:32:26 51°14.138 2°55.414 1.2 79 9.9 102010 75
2002-10-29 09:32:31 51°14.146 2°55.408 1.3 55 9.9 102010 75
2002-10-29 09:32:36 51°14.153 2°55.402 1 75 9.9 102010 75
2002-10-29 09:32:41 51°14.16 2°55.396 1.3 24 9.9 102010 75
2002-10-29 09:32:46 51°14.168 2°55.389 1.2 360 9.9 102010 75
2002-10-29 09:32:51 51°14.175 2°55.383 1.1 14 9.9 102010 75
2002-10-29 09:32:56 51°14.181 2°55.376 0.9 6 9.9 102010 75
2002-10-29 09:33:01 51°14.188 2°55.37 0.6 20 9.9 102010 75
2002-10-29 09:33:06 51°14.195 2°55.363 0.6 2 9.9 102010 75
2002-10-29 09:33:10 51°14.2 2°55.357 0.6 19 9.9 102010 75
2002-10-29 09:33:16 51°14.207 2°55.348 0.5 353 9.9 102010 75
2002-10-29 09:33:21 51°14.213 2°55.341 0.7 1 9.9 102010 75
2002-10-29 09:33:26 51°14.219 2°55.334 0.5 2 9.9 102010 75
2002-10-29 09:33:31 51°14.225 2°55.326 0.4 350 9.9 102010 75
2002-10-29 09:33:36 51°14.23 2°55.318 0.9 343 9.9 102010 75
2002-10-29 09:33:41 51°14.236 2°55.31 0.7 329 9.9 102010 75
2002-10-29 09:33:46 51°14.241 2°55.302 1.2 21 9.9 102010 75
2002-10-29 09:33:50 51°14.245 2°55.295 1.2 19 9.9 102010 75
2002-10-29 09:33:56 51°14.251 2°55.285 2.1 25 10 102010 75
2002-10-29 09:34:02 51°14.256 2°55.275 1.8 18 10 102010 75
2002-10-29 09:34:06 51°14.26 2°55.269 1.6 58 10 102000 75
2002-10-29 09:34:10 51°14.264 2°55.262 1.4 23 10 102000 75
2002-10-29 09:34:16 51°14.27 2°55.252 1.6 12 10 102000 75
2002-10-29 09:34:21 51°14.274 2°55.244 2.5 33 10 102000 75
2002-10-29 09:34:26 51°14.279 2°55.236 2.4 26 10 102000 75
2002-10-29 09:34:31 51°14.283 2°55.227 2.5 5 10 102000 75
2002-10-29 09:34:36 51°14.287 2°55.219 2.2 5 10 102000 75
2002-10-29 09:34:42 51°14.293 2°55.209 1.2 340 10 102000 75
2002-10-29 09:34:46 51°14.296 2°55.202 1.6 329 10 102000 75
2002-10-29 09:34:50 51°14.299 2°55.194 2.2 14 10 102000 75
2002-10-29 09:34:56 51°14.304 2°55.183 1.3 18 10 102000 75
2002-10-29 09:35:01 51°14.309 2°55.173 2.4 3 10 102000 75
2002-10-29 09:35:06 51°14.314 2°55.163 1.9 11 10 102000 75
2002-10-29 09:35:10 51°14.318 2°55.155 1 5 10 102000 75
2002-10-29 09:35:16 51°14.324 2°55.141 0.6 1 10 102000 75
2002-10-29 09:35:21 51°14.33 2°55.13 0.4 356 10 102000 75
2002-10-29 09:35:26 51°14.336 2°55.118 0.8 229 10 102000 75
2002-10-29 09:35:30 51°14.341 2°55.107 1.8 275 10 102000 75
2002-10-29 09:35:36 51°14.35 2°55.092 1.4 271 10 101990 74
2002-10-29 09:35:41 51°14.358 2°55.078 1.4 266 10 101990 74
2002-10-29 09:35:46 51°14.367 2°55.064 1.5 257 10 102000 74
2002-10-29 09:35:50 51°14.376 2°55.053 1.9 247 10 102000 74
2002-10-29 09:35:54 51°14.385 2°55.041 2 241 10 102000 74
2002-10-29 09:36:01 51°14.401 2°55.021 2.2 240 10 102000 74
2002-10-29 09:36:06 51°14.414 2°55.007 2.5 230 10 102000 74
2002-10-29 09:36:10 51°14.425 2°54.996 2.9 225 10 102000 74
2002-10-29 09:36:16 51°14.442 2°54.978 2.9 233 10.1 102010 74
2002-10-29 09:36:21 51°14.457 2°54.963 2.2 243 10.1 102010 74
2002-10-29 09:36:26 51°14.471 2°54.948 2.5 231 10 102000 74
2002-10-29 09:36:31 51°14.486 2°54.933 2.8 247 10 102000 74
2002-10-29 09:36:36 51°14.501 2°54.918 2.5 244 10 102000 74
2002-10-29 09:36:41 51°14.516 2°54.904 2.9 247 10 102000 74
2002-10-29 09:36:46 51°14.532 2°54.891 2.2 244 10 102000 74
2002-10-29 09:36:50 51°14.545 2°54.882 1.8 227 10 102000 74
2002-10-29 09:36:54 51°14.559 2°54.876 2.5 230 10 102000 74
2002-10-29 09:37:01 51°14.583 2°54.866 2.7 212 10 102000 74
2002-10-29 09:37:06 51°14.6 2°54.859 3.7 216 10 102000 74
2002-10-29 09:37:10 51°14.614 2°54.854 3 215 10 102000 74
2002-10-29 09:37:16 51°14.635 2°54.846 2.8 209 10 102010 74
2002-10-29 09:37:21 51°14.652 2°54.84 3.4 210 10 102010 74
2002-10-29 09:37:26 51°14.67 2°54.833 4.4 202 10 102000 74
2002-10-29 09:37:30 51°14.684 2°54.827 3.5 196 10 102000 74
2002-10-29 09:37:36 51°14.705 2°54.819 3.3 202 10 102000 74
2002-10-29 09:37:41 51°14.722 2°54.812 3.2 206 10 102000 74
2002-10-29 09:37:45 51°14.736 2°54.806 3.4 222 10 102010 74
2002-10-29 09:37:50 51°14.754 2°54.8 3 221 10 102010 74
2002-10-29 09:37:56 51°14.775 2°54.791 3 214 10 102000 74
2002-10-29 09:38:01 51°14.792 2°54.784 2.7 204 10 102000 74
2002-10-29 09:38:06 51°14.81 2°54.777 2.8 198 10 102000 74
2002-10-29 09:38:11 51°14.828 2°54.77 2.6 205 10 102000 74
2002-10-29 09:38:16 51°14.846 2°54.764 2.4 201 10.1 102000 74
2002-10-29 09:38:21 51°14.864 2°54.757 2.1 197 10.1 102000 74
2002-10-29 09:38:26 51°14.881 2°54.75 1.9 190 10 102000 74
2002-10-29 09:38:31 51°14.899 2°54.743 1.9 177 10 102000 74
2002-10-29 09:38:36 51°14.917 2°54.736 1.5 180 10 102010 74
2002-10-29 09:38:41 51°14.934 2°54.729 2 167 10 102010 74
2002-10-29 09:38:46 51°14.952 2°54.721 2.1 172 10 102000 73
2002-10-29 09:38:51 51°14.97 2°54.714 1.9 169 10 102000 73
2002-10-29 09:38:56 51°14.987 2°54.707 1.7 177 10 102000 73
2002-10-29 09:39:01 51°15.005 2°54.7 1.8 172 10 102000 73
2002-10-29 09:39:06 51°15.023 2°54.693 1.8 172 10 102010 73
2002-10-29 09:39:10 51°15.037 2°54.688 1.9 186 10 102010 73
2002-10-29 09:39:16 51°15.058 2°54.68 2.3 182 10 102000 73
2002-10-29 09:39:21 51°15.075 2°54.674 2.1 172 10 102000 73
2002-10-29 09:39:26 51°15.093 2°54.667 2.5 182 9.9 102010 73
2002-10-29 09:39:30 51°15.107 2°54.663 2.6 183 9.9 102010 73
2002-10-29 09:39:36 51°15.128 2°54.655 2.4 170 9.9 102010 73
2002-10-29 09:39:41 51°15.145 2°54.649 2.3 163 9.9 102010 73
2002-10-29 09:39:46 51°15.163 2°54.643 2 163 9.9 102000 73
2002-10-29 09:39:51 51°15.18 2°54.636 1.6 172 9.9 102000 73
2002-10-29 09:39:56 51°15.198 2°54.63 1.9 170 9.9 102010 73
2002-10-29 09:40:01 51°15.215 2°54.624 1.6 179 9.9 102010 73
2002-10-29 09:40:06 51°15.233 2°54.617 1.5 179 9.9 102010 73
2002-10-29 09:40:11 51°15.251 2°54.61 1.2 179 9.9 102010 73
2002-10-29 09:40:16 51°15.269 2°54.602 1.1 191 9.9 102010 73
2002-10-29 09:40:21 51°15.286 2°54.595 1.2 179 9.9 102010 73
2002-10-29 09:40:26 51°15.304 2°54.587 1.6 183 9.9 102010 73
2002-10-29 09:40:31 51°15.322 2°54.58 1.1 191 9.9 102010 73
2002-10-29 09:40:36 51°15.34 2°54.573 0.9 192 9.9 102010 73
2002-10-29 09:40:41 51°15.358 2°54.566 2.1 215 9.9 102010 73
2002-10-29 09:40:46 51°15.376 2°54.56 2.6 202 9.9 102010 73
2002-10-29 09:40:51 51°15.394 2°54.553 2.8 206 9.9 102010 73
2002-10-29 09:40:56 51°15.412 2°54.546 2.4 207 9.9 102010 73
2002-10-29 09:41:01 51°15.43 2°54.539 2.9 209 9.9 102010 73
2002-10-29 09:41:06 51°15.448 2°54.532 2.3 206 9.9 102020 73
2002-10-29 09:41:11 51°15.466 2°54.524 2.5 210 9.9 102020 73
2002-10-29 09:41:16 51°15.484 2°54.517 2.3 216 10 102010 73
2002-10-29 09:41:21 51°15.502 2°54.509 2.5 223 10 102010 73
2002-10-29 09:41:26 51°15.52 2°54.502 2.4 224 10 102020 74
2002-10-29 09:41:31 51°15.539 2°54.495 2.2 219 10 102020 74
2002-10-29 09:41:36 51°15.557 2°54.487 2.1 229 10 102010 74
2002-10-29 09:41:41 51°15.574 2°54.48 2.2 218 10 102010 74
2002-10-29 09:41:46 51°15.593 2°54.473 2.3 216 10 102010 74
2002-10-29 09:41:51 51°15.611 2°54.465 2.7 208 10 102010 74
2002-10-29 09:41:56 51°15.629 2°54.459 2.4 205 10 102000 74
2002-10-29 09:42:01 51°15.647 2°54.451 2.5 192 10 102000 74
2002-10-29 09:42:06 51°15.665 2°54.444 2.1 203 10 102010 73
2002-10-29 09:42:11 51°15.683 2°54.437 2.3 194 10 102010 73
2002-10-29 09:42:16 51°15.702 2°54.43 2.4 202 10 102010 73
2002-10-29 09:42:21 51°15.72 2°54.423 2.3 191 10 102010 73
2002-10-29 09:42:26 51°15.738 2°54.415 2.3 192 10 102010 73
2002-10-29 09:42:31 51°15.756 2°54.408 2.5 194 10 102010 73
2002-10-29 09:42:36 51°15.774 2°54.4 2.2 185 10 102000 73
2002-10-29 09:42:41 51°15.792 2°54.392 2.6 196 10 102000 73
2002-10-29 09:42:46 51°15.811 2°54.385 2.2 184 10 102010 73
2002-10-29 09:42:51 51°15.829 2°54.377 2.4 181 10 102010 73
2002-10-29 09:42:56 51°15.848 2°54.37 2.4 184 10 102000 73
2002-10-29 09:43:01 51°15.866 2°54.363 1.7 196 10 102000 73
2002-10-29 09:43:06 51°15.885 2°54.356 1.8 196 10 102010 73
2002-10-29 09:43:11 51°15.903 2°54.348 1.8 209 10 102010 73
2002-10-29 09:43:16 51°15.922 2°54.341 2.5 206 10 102000 73
2002-10-29 09:43:21 51°15.941 2°54.333 2.7 208 10 102000 73
2002-10-29 09:43:26 51°15.959 2°54.325 2.8 228 10 102000 72
2002-10-29 09:43:31 51°15.978 2°54.318 2.3 204 10 102000 72
2002-10-29 09:43:36 51°15.996 2°54.31 2.2 210 10 101990 73
2002-10-29 09:43:41 51°16.015 2°54.303 2.1 209 10 101990 73
2002-10-29 09:43:46 51°16.034 2°54.296 2.3 217 10 102000 73
2002-10-29 09:43:51 51°16.052 2°54.29 2.2 206 10 102000 73
2002-10-29 09:43:56 51°16.071 2°54.286 2.8 208 10 101990 73
2002-10-29 09:44:01 51°16.088 2°54.285 3 181 10 101990 73
2002-10-29 09:44:06 51°16.104 2°54.285 3.8 172 10 102000 73
2002-10-29 09:44:11 51°16.12 2°54.288 4.2 148 10 102000 73
2002-10-29 09:44:16 51°16.134 2°54.293 4.1 155 10 102000 73
2002-10-29 09:44:21 51°16.148 2°54.299 3.8 149 10 102000 73
2002-10-29 09:44:26 51°16.161 2°54.305 3.9 141 10 102000 73
2002-10-29 09:44:31 51°16.173 2°54.312 3.5 142 10 102000 73
2002-10-29 09:44:36 51°16.185 2°54.318 3.9 148 10 101990 73
2002-10-29 09:44:41 51°16.196 2°54.325 4.7 152 10 101990 73
2002-10-29 09:44:46 51°16.206 2°54.332 5.1 152 10 101990 73
2002-10-29 09:44:51 51°16.216 2°54.339 4.6 141 10 101990 73
2002-10-29 09:44:56 51°16.225 2°54.345 4.8 140 10 101990 73
2002-10-29 09:45:01 51°16.234 2°54.351 4.4 136 10 101990 73
2002-10-29 09:45:06 51°16.243 2°54.357 5.4 135 10 101990 73
2002-10-29 09:45:11 51°16.251 2°54.363 5.8 139 10 101990 73
2002-10-29 09:45:16 51°16.259 2°54.369 5.8 137 10.1 101980 73
2002-10-29 09:45:21 51°16.266 2°54.375 7.1 142 10.1 101980 73
2002-10-29 09:45:26 51°16.274 2°54.38 6.5 135 10.1 101990 73
2002-10-29 09:45:30 51°16.279 2°54.384 5.7 134 10.1 101990 73
2002-10-29 09:45:34 51°16.285 2°54.389 6.7 131 10.1 101980 73
2002-10-29 09:45:41 51°16.294 2°54.396 6 132 10.1 101980 73
2002-10-29 09:45:46 51°16.3 2°54.401 6.1 124 10.1 101990 73
2002-10-29 09:45:50 51°16.305 2°54.405 6 126 10.1 101990 73
2002-10-29 09:45:56 51°16.313 2°54.411 5.7 120 10.1 101980 73
2002-10-29 09:46:01 51°16.32 2°54.414 5.7 98 10.1 101980 73
2002-10-29 09:46:05 51°16.326 2°54.416 5.2 91 10.1 101980 73
2002-10-29 09:46:10 51°16.334 2°54.416 4 75 10.1 101980 73
2002-10-29 09:46:16 51°16.345 2°54.413 3.2 65 10.1 101990 73
2002-10-29 09:46:21 51°16.353 2°54.407 3.1 57 10.1 101990 73
2002-10-29 09:46:26 51°16.361 2°54.399 2.6 31 10.1 101980 73
2002-10-29 09:46:30 51°16.366 2°54.391 4 341 10.1 101980 73
2002-10-29 09:46:36 51°16.373 2°54.376 3.5 349 10.1 102000 73
2002-10-29 09:46:41 51°16.378 2°54.363 2.8 338 10.1 102000 73
2002-10-29 09:46:46 51°16.381 2°54.349 2.3 329 10.1 101990 73
2002-10-29 09:46:51 51°16.382 2°54.335 3.6 319 10.1 101990 73
2002-10-29 09:46:56 51°16.382 2°54.321 5.6 299 10.2 101980 73
2002-10-29 09:47:01 51°16.381 2°54.307 7.3 293 10.2 101980 73
2002-10-29 09:47:06 51°16.379 2°54.294 8.3 295 10.1 101980 72
2002-10-29 09:47:11 51°16.375 2°54.281 9 289 10.1 101980 72
2002-10-29 09:47:16 51°16.37 2°54.27 9 286 10.1 101990 72
2002-10-29 09:47:21 51°16.364 2°54.259 10.1 274 10.1 101990 72
2002-10-29 09:47:26 51°16.357 2°54.251 9.2 267 10.1 101980 73
2002-10-29 09:47:31 51°16.349 2°54.244 9.7 255 10.1 101980 73
2002-10-29 09:47:36 51°16.34 2°54.241 10.2 257 10.2 101980 73
2002-10-29 09:47:41 51°16.331 2°54.239 9.5 246 10.2 101980 73
2002-10-29 09:47:46 51°16.322 2°54.24 11.6 235 10.2 101970 73
2002-10-29 09:47:51 51°16.314 2°54.243 9.8 236 10.2 101970 73
2002-10-29 09:47:56 51°16.307 2°54.246 9.4 233 10.2 101960 73
2002-10-29 09:48:01 51°16.301 2°54.25 8.4 234 10.2 101960 73
2002-10-29 09:48:06 51°16.295 2°54.254 8.4 231 10.2 101960 73
2002-10-29 09:48:11 51°16.289 2°54.258 9.1 228 10.2 101960 73
2002-10-29 09:48:16 51°16.284 2°54.262 8.6 227 10.2 101970 72
2002-10-29 09:48:21 51°16.28 2°54.267 8.1 225 10.2 101970 72
2002-10-29 09:48:26 51°16.275 2°54.271 8.8 225 10.2 101970 73
2002-10-29 09:48:31 51°16.271 2°54.275 8.3 220 10.2 101970 73
2002-10-29 09:48:36 51°16.268 2°54.279 8.2 224 10.2 101970 73
2002-10-29 09:48:41 51°16.265 2°54.282 8.2 219 10.2 101970 73
2002-10-29 09:48:46 51°16.262 2°54.285 8.2 218 10.2 101970 72
2002-10-29 09:48:51 51°16.261 2°54.287 7.5 213 10.2 101970 72
2002-10-29 09:48:56 51°16.26 2°54.288 8.1 215 10.2 101970 73
2002-10-29 09:49:01 51°16.26 2°54.287 7.6 210 10.2 101970 73
2002-10-29 09:49:06 51°16.26 2°54.286 7.2 213 10.2 101970 73
2002-10-29 09:49:11 51°16.26 2°54.285 7.3 207 10.2 101970 73
2002-10-29 09:49:16 51°16.26 2°54.283 7.5 211 10.2 101970 72
2002-10-29 09:49:21 51°16.26 2°54.282 7.7 199 10.2 101970 72
2002-10-29 09:49:26 51°16.261 2°54.281 7.4 198 10.3 101970 72
2002-10-29 09:49:31 51°16.261 2°54.279 6.7 196 10.3 101970 72
2002-10-29 09:49:37 51°16.262 2°54.278 6.7 189 10.3 101970 72
2002-10-29 09:49:42 51°16.262 2°54.277 5.8 195 10.3 101970 72
2002-10-29 09:49:47 51°16.263 2°54.276 5.3 187 10.2 101970 72
2002-10-29 09:49:52 51°16.263 2°54.274 5.3 188 10.2 101970 72
2002-10-29 09:49:57 51°16.263 2°54.273 6.5 184 10.2 101960 72
2002-10-29 09:50:02 51°16.263 2°54.272 5.3 189 10.2 101960 72
2002-10-29 09:50:07 51°16.264 2°54.271 6.2 180 10.2 101960 72
2002-10-29 09:50:12 51°16.264 2°54.27 5.7 176 10.2 101960 72
2002-10-29 09:50:16 51°16.264 2°54.269 6.2 183 10.2 101960 72
2002-10-29 09:50:22 51°16.265 2°54.267 5.2 181 10.2 101960 72
2002-10-29 09:50:27 51°16.265 2°54.266 5.4 187 10.2 101960 72
2002-10-29 09:50:32 51°16.266 2°54.265 6.3 181 10.2 101960 72
2002-10-29 09:50:37 51°16.266 2°54.264 6.2 181 10.2 101960 72
2002-10-29 09:50:42 51°16.266 2°54.263 7.1 177 10.2 101960 72
2002-10-29 09:50:46 51°16.266 2°54.262 5.2 179 10.3 101960 73
2002-10-29 09:50:51 51°16.267 2°54.261 6.4 169 10.3 101960 73
2002-10-29 09:50:56 51°16.267 2°54.259 6.9 167 10.3 101960 73
2002-10-29 09:51:01 51°16.267 2°54.258 6.9 170 10.3 101960 73
2002-10-29 09:51:05 51°16.268 2°54.257 6.7 168 10.2 101960 72
2002-10-29 09:51:10 51°16.268 2°54.256 6.3 168 10.2 101960 72
2002-10-29 09:51:16 51°16.269 2°54.255 6.6 165 10.2 101940 72
2002-10-29 09:51:21 51°16.269 2°54.254 6.7 161 10.2 101940 72
2002-10-29 09:51:25 51°16.27 2°54.253 6.1 159 10.2 101950 71
2002-10-29 09:51:31 51°16.27 2°54.252 5.7 154 10.2 101950 71
2002-10-29 09:51:36 51°16.271 2°54.251 5.6 161 10.2 101950 71
2002-10-29 09:51:41 51°16.271 2°54.249 5 164 10.2 101950 71
2002-10-29 09:51:46 51°16.272 2°54.248 6.4 152 10.1 101960 71
2002-10-29 09:51:50 51°16.272 2°54.248 6 158 10.1 101960 71
2002-10-29 09:51:56 51°16.272 2°54.246 5.6 155 10.1 101960 71
2002-10-29 09:52:01 51°16.272 2°54.245 5.8 158 10.1 101960 71
2002-10-29 09:52:06 51°16.273 2°54.244 6 157 10.2 101940 72
2002-10-29 09:52:10 51°16.273 2°54.244 5.7 156 10.2 101940 72
2002-10-29 09:52:16 51°16.274 2°54.242 6.5 173 10.2 101950 72
2002-10-29 09:52:21 51°16.274 2°54.242 6.5 157 10.2 101950 72
2002-10-29 09:52:26 51°16.275 2°54.241 6.2 148 10.2 101950 72
2002-10-29 09:52:31 51°16.275 2°54.239 6.8 137 10.2 101950 72
2002-10-29 09:52:36 51°16.275 2°54.239 6.7 146 10.2 101940 73
2002-10-29 09:52:41 51°16.276 2°54.237 7.4 141 10.2 101940 73
2002-10-29 09:52:46 51°16.276 2°54.237 5.9 150 10.3 101950 74
2002-10-29 09:52:51 51°16.278 2°54.236 7.4 149 10.3 101950 74
2002-10-29 09:52:56 51°16.278 2°54.236 6.2 140 10.3 101950 74
2002-10-29 09:53:01 51°16.278 2°54.236 7.8 138 10.3 101950 74
2002-10-29 09:53:06 51°16.279 2°54.235 7.5 138 10.4 101950 74
2002-10-29 09:53:11 51°16.28 2°54.235 6.4 141 10.4 101950 74
2002-10-29 09:53:16 51°16.281 2°54.235 6.5 136 10.4 101950 74
2002-10-29 09:53:21 51°16.282 2°54.235 5.9 145 10.4 101950 74
2002-10-29 09:53:26 51°16.282 2°54.235 6.3 137 10.4 101940 74
2002-10-29 09:53:31 51°16.284 2°54.236 6.1 153 10.4 101940 74
2002-10-29 09:53:36 51°16.285 2°54.236 7.2 144 10.4 101940 73
2002-10-29 09:53:41 51°16.286 2°54.237 7.8 147 10.4 101940 73
2002-10-29 09:53:46 51°16.287 2°54.238 7.7 143 10.4 101940 73
2002-10-29 09:53:51 51°16.287 2°54.239 6.4 150 10.4 101940 73
2002-10-29 09:53:56 51°16.289 2°54.239 8.5 145 10.3 101950 73
2002-10-29 09:54:01 51°16.29 2°54.24 8.1 150 10.3 101950 73
2002-10-29 09:54:06 51°16.29 2°54.241 7.8 151 10.3 101940 73
2002-10-29 09:54:11 51°16.292 2°54.242 7.3 152 10.3 101940 73
2002-10-29 09:54:16 51°16.293 2°54.244 7.5 155 10.3 101940 73
2002-10-29 09:54:21 51°16.294 2°54.245 7.3 161 10.3 101940 73
2002-10-29 09:54:26 51°16.295 2°54.247 8.2 157 10.3 101940 73
2002-10-29 09:54:31 51°16.296 2°54.248 6.6 159 10.3 101940 73
2002-10-29 09:54:36 51°16.297 2°54.25 7.2 158 10.3 101940 72
2002-10-29 09:54:41 51°16.298 2°54.251 7.6 159 10.3 101940 72
2002-10-29 09:54:46 51°16.299 2°54.253 8 158 10.3 101930 72
2002-10-29 09:54:51 51°16.3 2°54.254 7.5 159 10.3 101930 72
2002-10-29 09:54:56 51°16.3 2°54.256 6.5 163 10.2 101940 72
2002-10-29 09:55:01 51°16.301 2°54.258 7 157 10.2 101940 72
2002-10-29 09:55:06 51°16.302 2°54.26 6.4 159 10.2 101930 72
2002-10-29 09:55:11 51°16.303 2°54.261 8.3 160 10.2 101930 72
2002-10-29 09:55:16 51°16.303 2°54.263 8.1 172 10.2 101930 72
2002-10-29 09:55:21 51°16.304 2°54.265 7.9 178 10.2 101930 72
2002-10-29 09:55:26 51°16.305 2°54.267 7.3 169 10.2 101930 72
2002-10-29 09:55:31 51°16.305 2°54.269 7.9 177 10.2 101930 72
2002-10-29 09:55:36 51°16.306 2°54.271 7.8 177 10.2 101930 72
2002-10-29 09:55:41 51°16.306 2°54.273 7.1 179 10.2 101930 72
2002-10-29 09:55:46 51°16.307 2°54.275 7.4 182 10.3 101930 73
2002-10-29 09:55:51 51°16.307 2°54.277 6.7 183 10.3 101930 73
2002-10-29 09:55:56 51°16.307 2°54.279 6.7 187 10.3 101930 72
2002-10-29 09:56:01 51°16.308 2°54.281 7.6 180 10.3 101930 72
2002-10-29 09:56:06 51°16.308 2°54.283 6.9 184 10.2 101920 72
2002-10-29 09:56:11 51°16.309 2°54.285 7.4 185 10.2 101920 72
2002-10-29 09:56:16 51°16.308 2°54.287 7.4 190 10.2 101920 71
2002-10-29 09:56:21 51°16.309 2°54.289 7 191 10.2 101920 71
2002-10-29 09:56:25 51°16.309 2°54.291 6.8 189 10.2 101920 71
2002-10-29 09:56:30 51°16.309 2°54.293 7.3 185 10.2 101920 71
2002-10-29 09:56:36 51°16.309 2°54.295 7.2 190 10.2 101920 71
2002-10-29 09:56:41 51°16.309 2°54.297 7.4 197 10.2 101920 71
2002-10-29 09:56:45 51°16.309 2°54.298 7 193 10.2 101920 71
2002-10-29 09:56:51 51°16.309 2°54.301 8.3 190 10.2 101920 71
2002-10-29 09:56:56 51°16.309 2°54.302 7.8 189 10.2 101920 71
2002-10-29 09:57:01 51°16.309 2°54.304 7.8 191 10.2 101920 71
2002-10-29 09:57:05 51°16.308 2°54.306 6.8 186 10.2 101920 71
2002-10-29 09:57:10 51°16.308 2°54.308 8.5 198 10.2 101920 71
2002-10-29 09:57:16 51°16.308 2°54.31 8.9 201 10.2 101920 71
2002-10-29 09:57:21 51°16.308 2°54.311 8.9 202 10.2 101920 71
2002-10-29 09:57:26 51°16.308 2°54.313 8.9 207 10.1 101920 71
2002-10-29 09:57:31 51°16.307 2°54.315 8.9 201 10.1 101920 71
2002-10-29 09:57:36 51°16.307 2°54.317 9.2 198 10.1 101910 71
2002-10-29 09:57:41 51°16.306 2°54.318 9.5 213 10.1 101910 71
2002-10-29 09:57:46 51°16.306 2°54.32 9.6 212 10.1 101920 71
2002-10-29 09:57:50 51°16.306 2°54.321 9.8 211 10.1 101920 71
2002-10-29 09:57:56 51°16.305 2°54.323 8.7 212 10.1 101920 71
2002-10-29 09:58:01 51°16.304 2°54.324 9.1 213 10.1 101920 71
2002-10-29 09:58:06 51°16.304 2°54.325 9.5 211 10.1 101910 71
2002-10-29 09:58:10 51°16.303 2°54.326 9.3 208 10.1 101910 71
2002-10-29 09:58:16 51°16.303 2°54.328 9.2 203 10.1 101920 71
2002-10-29 09:58:21 51°16.302 2°54.329 8.5 207 10.1 101920 71
2002-10-29 09:58:26 51°16.301 2°54.33 8.6 206 10.1 101920 71
2002-10-29 09:58:31 51°16.301 2°54.332 9.1 215 10.1 101920 71
2002-10-29 09:58:36 51°16.3 2°54.333 9.5 208 10.1 101910 71
2002-10-29 09:58:41 51°16.299 2°54.334 9.2 206 10.1 101910 71
2002-10-29 09:58:46 51°16.299 2°54.335 8.8 211 10.1 101920 71
2002-10-29 09:58:50 51°16.298 2°54.336 8.3 214 10.1 101920 71
2002-10-29 09:58:56 51°16.297 2°54.337 7.9 211 10.1 101920 71
2002-10-29 09:59:01 51°16.296 2°54.338 8 212 10.1 101920 71
2002-10-29 09:59:06 51°16.296 2°54.339 8.8 212 10.1 101920 71
2002-10-29 09:59:10 51°16.295 2°54.34 8.8 217 10.1 101920 71
2002-10-29 09:59:16 51°16.294 2°54.341 8.7 219 10.1 101910 71
2002-10-29 09:59:21 51°16.293 2°54.342 8.6 223 10.1 101910 71
2002-10-29 09:59:26 51°16.292 2°54.343 8.7 228 10.2 101920 71
2002-10-29 09:59:31 51°16.291 2°54.344 8.6 235 10.2 101920 71
2002-10-29 09:59:36 51°16.29 2°54.344 9 231 10.2 101920 71
2002-10-29 09:59:41 51°16.289 2°54.345 8.6 228 10.2 101920 71
2002-10-29 09:59:46 51°16.287 2°54.345 9.7 233 10.2 101920 71
2002-10-29 09:59:51 51°16.286 2°54.346 8.7 228 10.2 101920 71
2002-10-29 09:59:56 51°16.284 2°54.346 8.6 235 10.2 101920 72
2002-10-29 10:00:01 51°16.283 2°54.346 8 235 10.2 101920 72
2002-10-29 10:00:06 51°16.282 2°54.346 8.5 238 10.3 101920 72
2002-10-29 10:00:10 51°16.281 2°54.346 8.3 242 10.3 101920 72
2002-10-29 10:00:16 51°16.279 2°54.346 8.8 239 10.3 101930 72
2002-10-29 10:00:21 51°16.278 2°54.345 8.3 240 10.3 101930 72
2002-10-29 10:00:26 51°16.277 2°54.345 7.9 246 10.3 101920 71
2002-10-29 10:00:30 51°16.276 2°54.345 7.5 246 10.3 101920 71
2002-10-29 10:00:36 51°16.275 2°54.344 8.3 249 10.3 101920 71
2002-10-29 10:00:41 51°16.273 2°54.343 9.1 253 10.3 101920 71
2002-10-29 10:00:46 51°16.272 2°54.343 9.1 261 10.3 101910 72
2002-10-29 10:00:51 51°16.271 2°54.341 8.5 258 10.3 101910 72
2002-10-29 10:00:56 51°16.27 2°54.341 8.1 262 10.3 101910 71
2002-10-29 10:01:01 51°16.269 2°54.339 8 264 10.3 101910 71
2002-10-29 10:01:06 51°16.268 2°54.338 8.4 260 10.3 101910 71
2002-10-29 10:01:11 51°16.268 2°54.336 9.1 262 10.3 101910 71
2002-10-29 10:01:16 51°16.267 2°54.335 9.2 260 10.3 101910 71
2002-10-29 10:01:21 51°16.266 2°54.334 8.6 263 10.3 101910 71
2002-10-29 10:01:26 51°16.265 2°54.332 8.5 267 10.3 101910 71
2002-10-29 10:01:30 51°16.265 2°54.331 8.8 270 10.3 101910 71
2002-10-29 10:01:36 51°16.264 2°54.328 8.4 264 10.3 101910 71
2002-10-29 10:01:41 51°16.263 2°54.327 8.5 278 10.3 101910 71
2002-10-29 10:01:45 51°16.263 2°54.325 8.6 275 10.4 101910 71
2002-10-29 10:01:51 51°16.262 2°54.323 8.9 273 10.4 101910 71
2002-10-29 10:01:55 51°16.262 2°54.321 10.5 269 10.3 101910 71
2002-10-29 10:02:01 51°16.262 2°54.319 10.1 272 10.3 101910 71
2002-10-29 10:02:06 51°16.261 2°54.317 9.8 273 10.4 101910 72
2002-10-29 10:02:11 51°16.261 2°54.315 9.1 279 10.4 101910 72
2002-10-29 10:02:16 51°16.261 2°54.313 9.7 280 10.4 101910 72
2002-10-29 10:02:21 51°16.26 2°54.311 8.4 288 10.4 101910 72
2002-10-29 10:02:26 51°16.26 2°54.309 8.5 290 10.4 101910 72
2002-10-29 10:02:30 51°16.26 2°54.307 7.8 296 10.4 101910 72
2002-10-29 10:02:36 51°16.26 2°54.304 8.3 294 10.4 101900 71
2002-10-29 10:02:41 51°16.26 2°54.302 7.4 296 10.4 101900 71
2002-10-29 10:02:46 51°16.26 2°54.3 8.8 297 10.4 101910 71
2002-10-29 10:02:51 51°16.26 2°54.298 8.2 300 10.4 101910 71
2002-10-29 10:02:56 51°16.26 2°54.296 8.5 301 10.4 101910 72
2002-10-29 10:03:01 51°16.26 2°54.293 8.3 296 10.4 101910 72
2002-10-29 10:03:06 51°16.26 2°54.291 7.8 299 10.5 101910 72
2002-10-29 10:03:10 51°16.26 2°54.289 7 297 10.5 101910 72
2002-10-29 10:03:16 51°16.26 2°54.286 7.3 301 10.5 101920 72
2002-10-29 10:03:21 51°16.26 2°54.284 6.9 305 10.5 101920 72
2002-10-29 10:03:26 51°16.26 2°54.282 6.8 303 10.5 101920 72
2002-10-29 10:03:30 51°16.26 2°54.28 4.3 311 10.5 101920 72
2002-10-29 10:03:36 51°16.26 2°54.277 6 309 10.5 101920 72
2002-10-29 10:03:41 51°16.26 2°54.275 7.8 301 10.5 101920 72
2002-10-29 10:03:46 51°16.26 2°54.272 6.2 319 10.6 101910 72
2002-10-29 10:03:51 51°16.26 2°54.27 4.5 304 10.6 101910 72
2002-10-29 10:03:56 51°16.26 2°54.267 5.1 331 10.6 101920 72
2002-10-29 10:04:01 51°16.26 2°54.265 4.1 315 10.6 101920 72
2002-10-29 10:04:06 51°16.26 2°54.263 4.3 319 10.6 101910 72
2002-10-29 10:04:10 51°16.261 2°54.26 5.4 303 10.6 101910 72
2002-10-29 10:04:16 51°16.26 2°54.258 4.9 309 10.6 101910 72
2002-10-29 10:04:21 51°16.261 2°54.255 2.5 318 10.6 101910 72
2002-10-29 10:04:25 51°16.261 2°54.253 2.3 317 10.6 101920 72
2002-10-29 10:04:30 51°16.261 2°54.251 4.6 296 10.6 101920 72
2002-10-29 10:04:36 51°16.261 2°54.248 3.4 332 10.5 101910 72
2002-10-29 10:04:41 51°16.262 2°54.245 3.1 316 10.5 101910 72
2002-10-29 10:04:46 51°16.261 2°54.243 2.7 315 10.5 101910 71
2002-10-29 10:04:51 51°16.262 2°54.241 4.9 296 10.5 101910 71
2002-10-29 10:04:56 51°16.262 2°54.238 5.9 305 10.5 101920 71
2002-10-29 10:05:01 51°16.262 2°54.236 4.1 296 10.5 101920 71
2002-10-29 10:05:06 51°16.262 2°54.233 4.3 312 10.5 101920 71
2002-10-29 10:05:10 51°16.262 2°54.231 3.7 317 10.5 101920 71
2002-10-29 10:05:16 51°16.263 2°54.228 6.2 298 10.5 101910 71
2002-10-29 10:05:21 51°16.262 2°54.226 4 315 10.5 101910 71
2002-10-29 10:05:25 51°16.263 2°54.224 4 302 10.5 101910 71
2002-10-29 10:05:30 51°16.263 2°54.222 4.1 317 10.5 101910 71
2002-10-29 10:05:36 51°16.263 2°54.219 3.9 312 10.5 101910 71
2002-10-29 10:05:41 51°16.263 2°54.217 5.4 303 10.5 101910 71
2002-10-29 10:05:46 51°16.263 2°54.214 4.1 319 10.5 101920 72
2002-10-29 10:05:51 51°16.263 2°54.212 2.9 316 10.5 101920 72
2002-10-29 10:05:56 51°16.264 2°54.209 4.1 322 10.5 101910 72
2002-10-29 10:06:01 51°16.264 2°54.207 3 320 10.5 101910 72
2002-10-29 10:06:06 51°16.264 2°54.204 4.3 304 10.5 101910 71
2002-10-29 10:06:10 51°16.264 2°54.202 3.2 326 10.5 101910 71
2002-10-29 10:06:16 51°16.264 2°54.2 3.5 327 10.5 101900 71
2002-10-29 10:06:21 51°16.265 2°54.197 2.7 321 10.5 101900 71
2002-10-29 10:06:26 51°16.265 2°54.195 3.6 318 10.5 101910 72
2002-10-29 10:06:30 51°16.265 2°54.193 3.8 317 10.5 101910 72
2002-10-29 10:06:36 51°16.265 2°54.19 3.8 331 10.5 101910 71
2002-10-29 10:06:41 51°16.265 2°54.188 3 303 10.5 101910 71
2002-10-29 10:06:45 51°16.265 2°54.186 3.4 336 10.5 101910 72
2002-10-29 10:06:50 51°16.265 2°54.183 3.7 308 10.5 101910 72
2002-10-29 10:06:56 51°16.266 2°54.18 2.8 328 10.5 101900 72
2002-10-29 10:07:01 51°16.266 2°54.178 3.9 323 10.5 101900 72
2002-10-29 10:07:05 51°16.266 2°54.176 2.8 329 10.5 101900 71
2002-10-29 10:07:10 51°16.266 2°54.174 1.5 338 10.5 101900 71
2002-10-29 10:07:16 51°16.266 2°54.171 2.1 315 10.5 101910 71
2002-10-29 10:07:21 51°16.266 2°54.169 1.2 348 10.5 101910 71
2002-10-29 10:07:26 51°16.266 2°54.166 1.7 344 10.5 101900 71
2002-10-29 10:07:30 51°16.267 2°54.164 3.1 323 10.5 101900 71
2002-10-29 10:07:36 51°16.266 2°54.162 2.8 305 10.5 101910 71
2002-10-29 10:07:41 51°16.267 2°54.159 1.8 341 10.5 101910 71
2002-10-29 10:07:46 51°16.267 2°54.157 1.9 320 10.5 101900 71
2002-10-29 10:07:50 51°16.267 2°54.155 2 338 10.5 101900 71
2002-10-29 10:07:56 51°16.267 2°54.152 3 314 10.5 101900 71
2002-10-29 10:08:01 51°16.267 2°54.15 3.6 315 10.5 101900 71
2002-10-29 10:08:06 51°16.267 2°54.147 2.9 341 10.5 101900 71
2002-10-29 10:08:10 51°16.267 2°54.145 0.3 311 10.5 101900 71
2002-10-29 10:08:16 51°16.267 2°54.143 1.6 308 10.5 101890 71
2002-10-29 10:08:21 51°16.268 2°54.14 1.4 324 10.5 101890 71
2002-10-29 10:08:26 51°16.268 2°54.138 0.7 320 10.5 101890 72
2002-10-29 10:08:31 51°16.268 2°54.134 2 324 10.5 101890 72
2002-10-29 10:08:36 51°16.267 2°54.13 1.9 302 10.5 101890 72
2002-10-29 10:08:41 51°16.267 2°54.124 2.7 318 10.5 101890 72
2002-10-29 10:08:46 51°16.265 2°54.117 2.2 333 10.5 101890 72
2002-10-29 10:08:51 51°16.265 2°54.107 1.8 347 10.5 101890 72
2002-10-29 10:08:55 51°16.264 2°54.098 2.7 337 10.6 101880 72
2002-10-29 10:09:01 51°16.265 2°54.081 4.2 328 10.6 101880 72
2002-10-29 10:09:06 51°16.267 2°54.065 2.4 345 10.6 101890 72
2002-10-29 10:09:10 51°16.269 2°54.051 5 359 10.6 101890 72
2002-10-29 10:09:16 51°16.275 2°54.027 5.5 355 10.6 101890 72
2002-10-29 10:09:21 51°16.28 2°54.007 4.5 8 10.6 101890 72
2002-10-29 10:09:26 51°16.287 2°53.986 4.4 352 10.5 101880 72
2002-10-29 10:09:30 51°16.293 2°53.969 2.1 337 10.5 101880 72
2002-10-29 10:09:35 51°16.301 2°53.947 2.6 343 10.5 101890 72
2002-10-29 10:09:41 51°16.311 2°53.92 0.8 341 10.5 101890 72
2002-10-29 10:09:45 51°16.32 2°53.903 0.8 295 10.5 101880 72
2002-10-29 10:09:50 51°16.33 2°53.881 0.4 329 10.5 101880 72
2002-10-29 10:09:56 51°16.343 2°53.856 0.3 335 10.5 101890 72
2002-10-29 10:10:01 51°16.354 2°53.834 3.1 346 10.5 101890 72
2002-10-29 10:10:06 51°16.365 2°53.812 2.7 358 10.5 101890 72
2002-10-29 10:10:10 51°16.375 2°53.795 3.5 353 10.5 101890 72
2002-10-29 10:10:16 51°16.389 2°53.769 3.5 355 10.5 101890 72
2002-10-29 10:10:21 51°16.4 2°53.747 2.8 353 10.5 101890 72
2002-10-29 10:10:26 51°16.411 2°53.725 2.9 359 10.5 101890 72
2002-10-29 10:10:31 51°16.422 2°53.703 3.2 14 10.5 101890 72
2002-10-29 10:10:36 51°16.434 2°53.681 3 7 10.5 101890 72
2002-10-29 10:10:41 51°16.446 2°53.66 2.3 6 10.5 101890 72
2002-10-29 10:10:46 51°16.457 2°53.637 2.3 343 10.5 101880 71
2002-10-29 10:10:51 51°16.469 2°53.615 1.6 342 10.5 101880 71
2002-10-29 10:10:56 51°16.479 2°53.592 0.8 342 10.4 101880 71
2002-10-29 10:11:01 51°16.491 2°53.57 0.3 326 10.4 101880 71
2002-10-29 10:11:06 51°16.502 2°53.547 2.7 345 10.4 101890 71
2002-10-29 10:11:11 51°16.513 2°53.525 2.1 336 10.4 101890 71
2002-10-29 10:11:16 51°16.524 2°53.502 2.1 359 10.4 101880 71
2002-10-29 10:11:21 51°16.536 2°53.48 3.6 345 10.4 101880 71
2002-10-29 10:11:26 51°16.547 2°53.458 4.1 358 10.4 101880 71
2002-10-29 10:11:30 51°16.556 2°53.44 3.4 4 10.4 101880 71
2002-10-29 10:11:36 51°16.569 2°53.413 3.7 351 10.4 101880 71
2002-10-29 10:11:41 51°16.581 2°53.39 2.2   10.4 101880 71
2002-10-29 10:11:46 51°16.593 2°53.369 2.7 1 10.4 101890 72
2002-10-29 10:11:51 51°16.604 2°53.347 1.8 12 10.4 101890 72
2002-10-29 10:11:56 51°16.616 2°53.325 2.2 358 10.5 101880 72
2002-10-29 10:12:01 51°16.627 2°53.303 2.6 20 10.5 101880 72
2002-10-29 10:12:06 51°16.639 2°53.281 2.3 11 10.5 101880 72
2002-10-29 10:12:11 51°16.65 2°53.259 0.9 333 10.5 101880 72
2002-10-29 10:12:16 51°16.662 2°53.237 1.5 282 10.5 101890 72
2002-10-29 10:12:21 51°16.673 2°53.215 1.8 304 10.5 101890 72
2002-10-29 10:12:26 51°16.685 2°53.193 1.7 301 10.5 101880 72
2002-10-29 10:12:31 51°16.696 2°53.171 2.2 305 10.5 101880 72
2002-10-29 10:12:36 51°16.708 2°53.149 1.2 343 10.5 101870 72
2002-10-29 10:12:41 51°16.72 2°53.127 1.1 319 10.5 101870 72
2002-10-29 10:12:46 51°16.731 2°53.105 0.7 327 10.5 101880 72
2002-10-29 10:12:50 51°16.74 2°53.088 0.5 3 10.5 101880 72
2002-10-29 10:12:56 51°16.755 2°53.062 1 309 10.5 101880 72
2002-10-29 10:13:01 51°16.767 2°53.041 1.7 315 10.5 101880 72
2002-10-29 10:13:06 51°16.779 2°53.02 1.3 306 10.5 101880 72
2002-10-29 10:13:11 51°16.791 2°52.998 2.5 353 10.5 101880 72
2002-10-29 10:13:16 51°16.802 2°52.977 1.4 351 10.5 101880 72
2002-10-29 10:13:21 51°16.814 2°52.956 1.1 348 10.5 101880 72
2002-10-29 10:13:26 51°16.826 2°52.935 2.6 350 10.5 101880 72
2002-10-29 10:13:30 51°16.835 2°52.919 2.2 357 10.5 101880 72
2002-10-29 10:13:36 51°16.849 2°52.893 2.4 341 10.5 101880 72
2002-10-29 10:13:41 51°16.86 2°52.872 1.4 353 10.5 101880 72
2002-10-29 10:13:46 51°16.871 2°52.851 1.7 353 10.5 101880 72
2002-10-29 10:13:49 51°16.878 2°52.838 1.6 355 10.5 101880 72
2002-10-29 10:13:56 51°16.895 2°52.809 2.2 353 10.5 101880 72
2002-10-29 10:14:01 51°16.907 2°52.788 1.3 30 10.5 101880 72
2002-10-29 10:14:06 51°16.919 2°52.768 1 8 10.5 101880 71
2002-10-29 10:14:10 51°16.929 2°52.752 0.9 335 10.5 101880 71
2002-10-29 10:14:16 51°16.944 2°52.727 0.7 321 10.5 101880 72
2002-10-29 10:14:21 51°16.956 2°52.707 1.6 344 10.5 101880 72
2002-10-29 10:14:26 51°16.969 2°52.686 2.2 352 10.5 101880 72
2002-10-29 10:14:30 51°16.979 2°52.669 1.8 2 10.5 101880 72
2002-10-29 10:14:36 51°16.993 2°52.644 2.2 2 10.5 101890 72
2002-10-29 10:14:41 51°17.006 2°52.623 1.9 4 10.5 101890 72
2002-10-29 10:14:46 51°17.018 2°52.602 1.9 23 10.5 101880 71
2002-10-29 10:14:50 51°17.028 2°52.586 0.9 24 10.5 101880 71
2002-10-29 10:14:56 51°17.045 2°52.564 0.8 37 10.4 101890 71
2002-10-29 10:15:01 51°17.058 2°52.546 0.7 332 10.4 101890 71
2002-10-29 10:15:06 51°17.072 2°52.528 0.7 15 10.5 101890 71
2002-10-29 10:15:10 51°17.083 2°52.514 0.8 344 10.5 101890 71
2002-10-29 10:15:16 51°17.099 2°52.492 0.8 359 10.4 101880 71
2002-10-29 10:15:21 51°17.112 2°52.474 0.9 2 10.4 101880 71
2002-10-29 10:15:26 51°17.126 2°52.455 1.3 348 10.5 101890 71
2002-10-29 10:15:30 51°17.137 2°52.44 0.6 353 10.5 101890 71
2002-10-29 10:15:36 51°17.153 2°52.418 0.6 316 10.5 101890 72
2002-10-29 10:15:41 51°17.166 2°52.398 0.6 325 10.5 101890 72
2002-10-29 10:15:46 51°17.179 2°52.379 1.1 286 10.5 101900 72
2002-10-29 10:15:51 51°17.192 2°52.36 1 307 10.5 101900 72
2002-10-29 10:15:56 51°17.205 2°52.341 0.8 328 10.5 101890 72
2002-10-29 10:16:01 51°17.219 2°52.322 1 327 10.5 101890 72
2002-10-29 10:16:06 51°17.233 2°52.305 0.6 342 10.5 101890 72
2002-10-29 10:16:11 51°17.247 2°52.288 0.7 357 10.5 101890 72
2002-10-29 10:16:16 51°17.262 2°52.271 0.6 352 10.5 101890 72
2002-10-29 10:16:21 51°17.277 2°52.255 0.6 343 10.5 101890 72
2002-10-29 10:16:26 51°17.291 2°52.238 0.5 350 10.5 101890 72
2002-10-29 10:16:31 51°17.306 2°52.222 0.2 316 10.5 101890 72
2002-10-29 10:16:36 51°17.32 2°52.206 0.1 331 10.5 101900 72
2002-10-29 10:16:41 51°17.335 2°52.189 0.7 348 10.5 101900 72
2002-10-29 10:16:46 51°17.349 2°52.173 0.7 353 10.5 101890 72
2002-10-29 10:16:51 51°17.364 2°52.157 0.6 336 10.5 101890 72
2002-10-29 10:16:56 51°17.379 2°52.14 1.3 9 10.5 101890 72
2002-10-29 10:17:01 51°17.393 2°52.124 1.4 349 10.5 101890 72
2002-10-29 10:17:06 51°17.408 2°52.108 1   10.5 101900 72
2002-10-29 10:17:10 51°17.419 2°52.094 1.4 1 10.5 101900 72
2002-10-29 10:17:16 51°17.436 2°52.073 1.5 347 10.6 101900 72
2002-10-29 10:17:21 51°17.45 2°52.057 1.4 345 10.6 101900 72
2002-10-29 10:17:26 51°17.464 2°52.039 1.9 354 10.6 101900 72
2002-10-29 10:17:30 51°17.475 2°52.025 1.6 343 10.6 101900 72
2002-10-29 10:17:36 51°17.491 2°52.002 1.9 339 10.6 101890 72
2002-10-29 10:17:41 51°17.504 2°51.983 1.7 345 10.6 101890 72
2002-10-29 10:17:46 51°17.518 2°51.964 2.2 349 10.6 101900 72
2002-10-29 10:17:50 51°17.528 2°51.949 1.5 346 10.6 101900 72
2002-10-29 10:17:56 51°17.544 2°51.927 1.5   10.6 101900 72
2002-10-29 10:18:01 51°17.559 2°51.909 1.6 11 10.6 101900 72
2002-10-29 10:18:06 51°17.573 2°51.893 1.2 12 10.6 101900 72
2002-10-29 10:18:11 51°17.588 2°51.878 1 35 10.6 101900 72
2002-10-29 10:18:16 51°17.603 2°51.864 1.1 48 10.6 101900 71
2002-10-29 10:18:21 51°17.619 2°51.851 0.9 115 10.6 101900 71
2002-10-29 10:18:26 51°17.635 2°51.839 1.2 210 10.5 101900 71
2002-10-29 10:18:31 51°17.651 2°51.828 2 92 10.5 101900 71
2002-10-29 10:18:36 51°17.667 2°51.817 2.1 92 10.5 101890 71
2002-10-29 10:18:41 51°17.683 2°51.805 1.7 85 10.5 101890 71
2002-10-29 10:18:46 51°17.699 2°51.793 1.9 75 10.5 101890 71
2002-10-29 10:18:51 51°17.715 2°51.78 1.3 65 10.5 101890 71
2002-10-29 10:18:56 51°17.73 2°51.767 1.2 64 10.5 101890 71
2002-10-29 10:19:01 51°17.746 2°51.755 1.7 88 10.5 101890 71
2002-10-29 10:19:06 51°17.762 2°51.743 1.6 74 10.5 101900 71
2002-10-29 10:19:11 51°17.777 2°51.73 1.6 66 10.5 101900 71
2002-10-29 10:19:16 51°17.793 2°51.717 1.7 66 10.6 101890 71
2002-10-29 10:19:21 51°17.809 2°51.705 1.6 57 10.6 101890 71
2002-10-29 10:19:26 51°17.825 2°51.692 1.6 58 10.5 101890 71
2002-10-29 10:19:30 51°17.837 2°51.682 1.5 67 10.5 101890 71
2002-10-29 10:19:36 51°17.856 2°51.667 1.3 54 10.6 101900 71
2002-10-29 10:19:41 51°17.872 2°51.655 1.7 77 10.6 101900 71
2002-10-29 10:19:46 51°17.889 2°51.644 1.9 69 10.6 101890 71
2002-10-29 10:19:51 51°17.905 2°51.633 1.4 59 10.6 101890 71
2002-10-29 10:19:56 51°17.921 2°51.621 1.6 59 10.6 101900 71
2002-10-29 10:20:01 51°17.937 2°51.61 1.3 70 10.6 101900 71
2002-10-29 10:20:06 51°17.954 2°51.599 1.6 78 10.6 101890 71
2002-10-29 10:20:10 51°17.967 2°51.591 1.3 90 10.6 101890 71
2002-10-29 10:20:16 51°17.987 2°51.58 1.7 98 10.6 101900 71
2002-10-29 10:20:21 51°18.003 2°51.572 1.9 92 10.6 101900 71
2002-10-29 10:20:26 51°18.02 2°51.563 2.1 79 10.5 101900 71
2002-10-29 10:20:31 51°18.037 2°51.554 1.3 74 10.5 101900 71
2002-10-29 10:20:36 51°18.053 2°51.543 1.2 75 10.6 101900 71
2002-10-29 10:20:41 51°18.07 2°51.534 0.9 68 10.6 101900 71
2002-10-29 10:20:46 51°18.087 2°51.524 1.5 100 10.5 101890 71
2002-10-29 10:20:50 51°18.1 2°51.516 1.1 85 10.5 101890 71
2002-10-29 10:20:56 51°18.12 2°51.505 1 77 10.5 101900 71
2002-10-29 10:21:01 51°18.137 2°51.495 1 74 10.5 101900 71
2002-10-29 10:21:05 51°18.15 2°51.488 1.1 85 10.6 101900 72
2002-10-29 10:21:10 51°18.165 2°51.479 1.8 100 10.6 101900 72
2002-10-29 10:21:16 51°18.183 2°51.468 2.2 100 10.6 101890 72
2002-10-29 10:21:21 51°18.197 2°51.46 2.5 61 10.6 101890 72
2002-10-29 10:21:26 51°18.21 2°51.451 2.3 87 10.6 101890 72
2002-10-29 10:21:30 51°18.22 2°51.444 2.7 73 10.6 101890 72
2002-10-29 10:21:36 51°18.235 2°51.435 3.2 73 10.6 101890 72
2002-10-29 10:21:41 51°18.247 2°51.426 2.6 58 10.6 101890 72
2002-10-29 10:21:46 51°18.258 2°51.417 3.7 47 10.6 101880 72
2002-10-29 10:21:51 51°18.268 2°51.409 3.2 40 10.6 101880 72
2002-10-29 10:21:56 51°18.279 2°51.4 2.8 321 10.7 101890 72
2002-10-29 10:22:01 51°18.289 2°51.391 3.1 61 10.7 101890 72
2002-10-29 10:22:06 51°18.298 2°51.382 2.9 65 10.7 101890 72
2002-10-29 10:22:10 51°18.306 2°51.375 3.9 49 10.7 101890 72
2002-10-29 10:22:16 51°18.317 2°51.365 3.3 48 10.7 101880 72
2002-10-29 10:22:21 51°18.327 2°51.357 3.3 63 10.7 101880 72
2002-10-29 10:22:26 51°18.336 2°51.349 3.3 61 10.7 101880 72
2002-10-29 10:22:31 51°18.345 2°51.342 3.4 66 10.7 101880 72
2002-10-29 10:22:36 51°18.354 2°51.334 3.4 67 10.7 101880 72
2002-10-29 10:22:41 51°18.363 2°51.327 4.4 71 10.7 101880 72
2002-10-29 10:22:46 51°18.372 2°51.321 4.2 68 10.7 101880 72
2002-10-29 10:22:50 51°18.379 2°51.316 4.1 71 10.7 101880 72
2002-10-29 10:22:56 51°18.39 2°51.309 3.7 77 10.7 101870 72
2002-10-29 10:23:01 51°18.399 2°51.303 4.4 78 10.7 101870 72
2002-10-29 10:23:06 51°18.407 2°51.297 4.5 75 10.7 101880 72
2002-10-29 10:23:11 51°18.416 2°51.292 4.3 67 10.7 101880 72
2002-10-29 10:23:16 51°18.425 2°51.286 4.7 78 10.7 101870 72
2002-10-29 10:23:21 51°18.434 2°51.281 4.7 77 10.7 101870 72
2002-10-29 10:23:26 51°18.443 2°51.275 4.5 76 10.7 101870 72
2002-10-29 10:23:31 51°18.451 2°51.27 4.8 75 10.7 101870 72
2002-10-29 10:23:36 51°18.46 2°51.264 4.3 74 10.7 101870 72
2002-10-29 10:23:41 51°18.468 2°51.259 4.3 74 10.7 101870 72
2002-10-29 10:23:46 51°18.476 2°51.253 4 80 10.7 101870 72
2002-10-29 10:23:50 51°18.483 2°51.249 5.4 77 10.7 101870 72
2002-10-29 10:23:56 51°18.49 2°51.243 5.1 72 10.7 101870 72
2002-10-29 10:24:01 51°18.496 2°51.238 5.2 48 10.7 101870 72
2002-10-29 10:24:06 51°18.5 2°51.233 6.2 46 10.7 101860 72
2002-10-29 10:24:11 51°18.502 2°51.228 5.9 48 10.7 101860 72
2002-10-29 10:24:15 51°18.504 2°51.225 7.6 37 10.7 101860 72
2002-10-29 10:24:21 51°18.505 2°51.222 8.5 26 10.7 101860 72
2002-10-29 10:24:26 51°18.506 2°51.219 8.8 27 10.7 101860 72
2002-10-29 10:24:30 51°18.506 2°51.219 9.6 28 10.7 101860 72
2002-10-29 10:24:36 51°18.506 2°51.218 9.7 27 10.8 101860 73
2002-10-29 10:24:41 51°18.506 2°51.217 10.3 20 10.8 101860 73
2002-10-29 10:24:46 51°18.506 2°51.216 9.9 19 10.8 101860 72
2002-10-29 10:24:51 51°18.506 2°51.215 9.6 15 10.8 101860 72
2002-10-29 10:24:56 51°18.506 2°51.213 9.8 21 10.8 101860 72
2002-10-29 10:25:01 51°18.506 2°51.212 9.1 16 10.8 101860 72
2002-10-29 10:25:06 51°18.507 2°51.211 9.4 15 10.8 101860 71
2002-10-29 10:25:10 51°18.507 2°51.21 8.6 13 10.8 101860 71
2002-10-29 10:25:16 51°18.507 2°51.208 8.9 14 10.7 101850 71
2002-10-29 10:25:21 51°18.507 2°51.207 8.1 12 10.7 101850 71
2002-10-29 10:25:26 51°18.507 2°51.205 8.3 9 10.7 101850 71
2002-10-29 10:25:30 51°18.508 2°51.204 8.2 6 10.7 101850 71
2002-10-29 10:25:36 51°18.508 2°51.202 8.4 6 10.7 101850 71
2002-10-29 10:25:41 51°18.509 2°51.2 8.1 10 10.7 101850 71
2002-10-29 10:25:46 51°18.509 2°51.198 7 6 10.7 101850 71
2002-10-29 10:25:50 51°18.509 2°51.197 8.4 2 10.7 101850 71
2002-10-29 10:25:56 51°18.509 2°51.194 7.7 10 10.7 101840 72
2002-10-29 10:26:01 51°18.51 2°51.192 8.7 6 10.7 101840 72
2002-10-29 10:26:06 51°18.51 2°51.191 6.3 8 10.8 101830 72
2002-10-29 10:26:11 51°18.51 2°51.189 7.6 358 10.8 101830 72
2002-10-29 10:26:16 51°18.511 2°51.187 7.6 354 10.8 101840 72
2002-10-29 10:26:21 51°18.511 2°51.185 5 340 10.8 101840 72
2002-10-29 10:26:26 51°18.512 2°51.182 7.5 343 10.7 101840 72
2002-10-29 10:26:31 51°18.512 2°51.18 5.8 342 10.7 101840 72
2002-10-29 10:26:36 51°18.512 2°51.178 6.6 341 10.7 101830 71
2002-10-29 10:26:41 51°18.512 2°51.176 5 5 10.7 101830 71
2002-10-29 10:26:46 51°18.513 2°51.174 7.5 335 10.7 101830 71
2002-10-29 10:26:50 51°18.513 2°51.172 1.7 333 10.7 101830 71
2002-10-29 10:26:56 51°18.513 2°51.169 4.2 338 10.7 101830 72
2002-10-29 10:27:01 51°18.514 2°51.167 3.4 345 10.7 101830 72
2002-10-29 10:27:06 51°18.514 2°51.165 3.4 332 10.7 101830 72
2002-10-29 10:27:11 51°18.514 2°51.162 1.7 325 10.7 101830 72
2002-10-29 10:27:16 51°18.514 2°51.16 4.8 316 10.8 101820 73
2002-10-29 10:27:21 51°18.515 2°51.158 4.1 323 10.8 101820 73
2002-10-29 10:27:26 51°18.515 2°51.156 5.3 323 10.8 101840 72
2002-10-29 10:27:30 51°18.515 2°51.153 4.5 318 10.8 101840 72
2002-10-29 10:27:36 51°18.516 2°51.151 3.7 318 10.7 101820 72
2002-10-29 10:27:41 51°18.516 2°51.148 3.1 331 10.7 101820 72
2002-10-29 10:27:45 51°18.516 2°51.146 3.1 317 10.7 101820 71
2002-10-29 10:27:51 51°18.516 2°51.143 3.8 307 10.7 101820 71
2002-10-29 10:27:56 51°18.517 2°51.141 5.8 315 10.7 101830 71
2002-10-29 10:28:01 51°18.517 2°51.138 4.4 309 10.7 101830 71
2002-10-29 10:28:06 51°18.517 2°51.136 3 339 10.7 101820 71
2002-10-29 10:28:12 51°18.518 2°51.133 3.4 308 10.7 101820 71
2002-10-29 10:28:16 51°18.518 2°51.131 3.6 329 10.7 101830 70
2002-10-29 10:28:21 51°18.518 2°51.129 4.4 315 10.7 101830 70
2002-10-29 10:28:26 51°18.518 2°51.126 3.3 314 10.6 101820 70
2002-10-29 10:28:31 51°18.519 2°51.124 2.8 304 10.6 101820 70
2002-10-29 10:28:36 51°18.519 2°51.122 2.4 322 10.6 101810 70
2002-10-29 10:28:41 51°18.519 2°51.119 1.4 332 10.6 101810 70
2002-10-29 10:28:46 51°18.519 2°51.117 2.5 317 10.7 101820 70
2002-10-29 10:28:51 51°18.519 2°51.114 2.6 319 10.7 101820 70
2002-10-29 10:28:56 51°18.519 2°51.112 2.4 306 10.6 101820 70
2002-10-29 10:29:01 51°18.52 2°51.11 1.8 300 10.6 101820 70
2002-10-29 10:29:06 51°18.52 2°51.107 2.1 331 10.7 101810 71
2002-10-29 10:29:10 51°18.52 2°51.105 1.8 330 10.7 101810 71
2002-10-29 10:29:16 51°18.52 2°51.102 1.9 339 10.7 101810 71
2002-10-29 10:29:21 51°18.52 2°51.1 2.1 334 10.7 101810 71
2002-10-29 10:29:26 51°18.52 2°51.098 1.8 325 10.7 101820 71
2002-10-29 10:29:31 51°18.52 2°51.096 2.3 330 10.7 101820 71
2002-10-29 10:29:35 51°18.521 2°51.093 2.5 337 10.7 101820 71
2002-10-29 10:29:41 51°18.52 2°51.09 3.1 313 10.7 101820 71
2002-10-29 10:29:46 51°18.521 2°51.088 4.2 323 10.7 101810 71
2002-10-29 10:29:51 51°18.521 2°51.086 4.1 310 10.7 101810 71
2002-10-29 10:29:56 51°18.521 2°51.083 6.4 316 10.7 101810 70
2002-10-29 10:30:01 51°18.522 2°51.081 5.5 306 10.7 101810 70
2002-10-29 10:30:06 51°18.522 2°51.078 5 310 10.7 101810 70
2002-10-29 10:30:11 51°18.522 2°51.076 6.7 317 10.7 101810 70
2002-10-29 10:30:16 51°18.522 2°51.074 6.5 303 10.7 101810 70
2002-10-29 10:30:21 51°18.522 2°51.071 5.8 293 10.7 101810 70
2002-10-29 10:30:25 51°18.522 2°51.069 5.6 323 10.7 101800 71
2002-10-29 10:30:31 51°18.522 2°51.066 6.1 306 10.7 101800 71
2002-10-29 10:30:36 51°18.523 2°51.063 5.5 308 10.7 101810 71
2002-10-29 10:30:41 51°18.523 2°51.061 6.4 309 10.7 101810 71
2002-10-29 10:30:46 51°18.523 2°51.059 5.9 312 10.7 101810 71
2002-10-29 10:30:51 51°18.523 2°51.056 7.9 311 10.7 101810 71
2002-10-29 10:30:56 51°18.523 2°51.054 8 291 10.8 101810 71
2002-10-29 10:31:01 51°18.523 2°51.052 6.6 300 10.8 101810 71
2002-10-29 10:31:06 51°18.524 2°51.049 6.1 302 10.8 101810 71
2002-10-29 10:31:11 51°18.524 2°51.047 6.5 302 10.8 101810 71
2002-10-29 10:31:16 51°18.523 2°51.044 7 300 10.8 101810 72
2002-10-29 10:31:21 51°18.524 2°51.041 5.3 295 10.8 101810 72
2002-10-29 10:31:26 51°18.524 2°51.039 6.2 317 10.8 101810 72
2002-10-29 10:31:30 51°18.524 2°51.036 7.1 313 10.8 101810 72
2002-10-29 10:31:36 51°18.523 2°51.034 6.6 319 10.8 101810 72
2002-10-29 10:31:41 51°18.524 2°51.031 4.9 323 10.8 101810 72
2002-10-29 10:31:46 51°18.523 2°51.029 4.9 315 10.8 101820 72
2002-10-29 10:31:51 51°18.523 2°51.027 8.4 312 10.8 101820 72
2002-10-29 10:31:56 51°18.524 2°51.024 6.3 316 10.9 101810 72
2002-10-29 10:32:01 51°18.524 2°51.021 5.4 320 10.9 101810 72
2002-10-29 10:32:06 51°18.524 2°51.018 5.3 316 10.9 101810 72
2002-10-29 10:32:10 51°18.524 2°51.017 7.6 300 10.9 101810 72
2002-10-29 10:32:16 51°18.524 2°51.014 6.7 298 10.8 101810 71
2002-10-29 10:32:21 51°18.524 2°51.011 3 336 10.8 101810 71
2002-10-29 10:32:26 51°18.524 2°51.008 5.8 296 10.8 101810 71
2002-10-29 10:32:31 51°18.524 2°51.006 5.1 300 10.8 101810 71
2002-10-29 10:32:36 51°18.524 2°51.003 6.9 300 10.8 101810 71
2002-10-29 10:32:41 51°18.524 2°51 4.4 342 10.8 101810 71
2002-10-29 10:32:46 51°18.525 2°50.998 2.8 326 10.8 101810 71
2002-10-29 10:32:50 51°18.525 2°50.996 4.1 327 10.8 101810 71
2002-10-29 10:32:56 51°18.525 2°50.992 5.3 320 10.8 101810 71
2002-10-29 10:33:01 51°18.525 2°50.99 3.9 325 10.8 101810 71
2002-10-29 10:33:06 51°18.525 2°50.987 2.9 340 10.8 101810 71
2002-10-29 10:33:11 51°18.525 2°50.985 4.7 317 10.8 101810 71
2002-10-29 10:33:16 51°18.525 2°50.982 7.5 311 10.8 101800 71
2002-10-29 10:33:21 51°18.525 2°50.979 6.7 325 10.8 101800 71
2002-10-29 10:33:26 51°18.524 2°50.977 7.8 304 10.8 101800 72
2002-10-29 10:33:31 51°18.524 2°50.974 6.5 322 10.8 101800 72
2002-10-29 10:33:36 51°18.525 2°50.971 8.4 301 10.8 101800 72
2002-10-29 10:33:41 51°18.524 2°50.968 7.9 297 10.8 101800 72
2002-10-29 10:33:46 51°18.523 2°50.964 8.5 297 10.8 101800 72
2002-10-29 10:33:50 51°18.522 2°50.96 9.7 299 10.8 101800 72
2002-10-29 10:33:56 51°18.52 2°50.951 9.3 306 10.8 101790 72
2002-10-29 10:34:01 51°18.518 2°50.943 10.5 297 10.8 101790 72
2002-10-29 10:34:06 51°18.516 2°50.931 11 304 10.9 101790 72
2002-10-29 10:34:10 51°18.513 2°50.921 9.1 310 10.9 101790 72
2002-10-29 10:34:16 51°18.511 2°50.903 6.3 315 10.9 101800 72
2002-10-29 10:34:21 51°18.509 2°50.887 4.2 318 10.9 101800 72
2002-10-29 10:34:26 51°18.509 2°50.869 4 324 10.9 101780 72
2002-10-29 10:34:31 51°18.51 2°50.85 4.5 348 10.9 101780 72
2002-10-29 10:34:35 51°18.512 2°50.834 4.7 340 10.8 101780 72
2002-10-29 10:34:41 51°18.517 2°50.811 4.5 4 10.8 101780 72
2002-10-29 10:34:46 51°18.522 2°50.792 2.1 343 10.8 101780 71
2002-10-29 10:34:50 51°18.528 2°50.778 5.6 6 10.8 101780 71
2002-10-29 10:34:56 51°18.538 2°50.757 4.8 4 10.8 101790 71
2002-10-29 10:35:01 51°18.547 2°50.742 5.8 25 10.8 101790 71
2002-10-29 10:35:06 51°18.558 2°50.73 5.7 18 10.8 101800 71
2002-10-29 10:35:10 51°18.567 2°50.721 3.9 34 10.8 101800 71
2002-10-29 10:35:16 51°18.582 2°50.711 4.3 126 10.8 101790 71
2002-10-29 10:35:21 51°18.595 2°50.705 5.3 83 10.8 101790 71
2002-10-29 10:35:26 51°18.609 2°50.703 4.7 98 10.7 101800 70
2002-10-29 10:35:30 51°18.619 2°50.703 6.9 125 10.7 101800 70
2002-10-29 10:35:36 51°18.635 2°50.706 6.8 128 10.7 101790 71
2002-10-29 10:35:41 51°18.648 2°50.712 8.9 131 10.7 101790 71
2002-10-29 10:35:46 51°18.66 2°50.72 9.2 128 10.7 101800 71
2002-10-29 10:35:51 51°18.672 2°50.731 8.1 156 10.7 101800 71
2002-10-29 10:35:56 51°18.681 2°50.744 9.7 163 10.8 101780 72
2002-10-29 10:36:01 51°18.69 2°50.759 11.5 168 10.8 101780 72
2002-10-29 10:36:06 51°18.698 2°50.776 10.9 177 10.8 101780 71
2002-10-29 10:36:10 51°18.703 2°50.79 11.3 175 10.8 101780 71
2002-10-29 10:36:16 51°18.709 2°50.813 8.9 184 10.8 101770 72
2002-10-29 10:36:21 51°18.711 2°50.833 11.9 190 10.8 101770 72
2002-10-29 10:36:26 51°18.714 2°50.854 11.1 189 10.8 101760 72
2002-10-29 10:36:31 51°18.716 2°50.874 10.6 188 10.8 101760 72
2002-10-29 10:36:36 51°18.717 2°50.895 9.4 187 10.8 101760 71
2002-10-29 10:36:41 51°18.719 2°50.917 10.6 188 10.8 101760 71
2002-10-29 10:36:46 51°18.722 2°50.938 10.9 178 10.8 101750 71
2002-10-29 10:36:50 51°18.724 2°50.955 11.3 182 10.8 101750 71
2002-10-29 10:36:56 51°18.728 2°50.981 10.9 181 10.7 101750 70
2002-10-29 10:37:01 51°18.732 2°51.002 13.3 175 10.7 101750 70
2002-10-29 10:37:06 51°18.736 2°51.023 10 179 10.8 101740 71
2002-10-29 10:37:10 51°18.74 2°51.039 13.5 174 10.8 101740 71
2002-10-29 10:37:16 51°18.746 2°51.064 12.1 174 10.8 101730 71
2002-10-29 10:37:21 51°18.751 2°51.085 11.6 178 10.8 101730 71
2002-10-29 10:37:26 51°18.756 2°51.106 11.6 175 10.8 101740 71
2002-10-29 10:37:30 51°18.76 2°51.123 11.1 183 10.8 101740 71
2002-10-29 10:37:36 51°18.765 2°51.148 10.9 187 10.8 101740 71
2002-10-29 10:37:41 51°18.77 2°51.17 11.3 181 10.8 101740 71
2002-10-29 10:37:46 51°18.775 2°51.191 11.6 181 10.8 101740 71
2002-10-29 10:37:50 51°18.779 2°51.209 10.3 192 10.8 101740 71
2002-10-29 10:37:56 51°18.785 2°51.237 11 189 10.8 101730 71
2002-10-29 10:38:01 51°18.791 2°51.261 11.3 182 10.8 101730 71
2002-10-29 10:38:06 51°18.796 2°51.286 12.2 182 10.8 101720 70
2002-10-29 10:38:10 51°18.801 2°51.306 12.5 182 10.8 101720 70
2002-10-29 10:38:16 51°18.808 2°51.338 10.7 184 10.8 101730 71
2002-10-29 10:38:21 51°18.814 2°51.364 11.3 187 10.8 101730 71
2002-10-29 10:38:26 51°18.82 2°51.391 12 185 10.7 101720 70
2002-10-29 10:38:30 51°18.825 2°51.412 13.4 181 10.7 101720 70
2002-10-29 10:38:36 51°18.832 2°51.445 12.6 181 10.7 101730 70
2002-10-29 10:38:41 51°18.838 2°51.472 11.5 186 10.7 101730 70
2002-10-29 10:38:46 51°18.844 2°51.499 11.4 183 10.7 101710 70
2002-10-29 10:38:51 51°18.85 2°51.526 11.9 182 10.7 101710 70
2002-10-29 10:38:56 51°18.856 2°51.554 11 183 10.7 101720 70
2002-10-29 10:39:01 51°18.862 2°51.582 11 188 10.7 101720 70
2002-10-29 10:39:06 51°18.868 2°51.609 10.9 188 10.7 101710 70
2002-10-29 10:39:10 51°18.873 2°51.63 10.9 188 10.7 101710 70
2002-10-29 10:39:16 51°18.88 2°51.663 11.2 190 10.7 101720 70
2002-10-29 10:39:21 51°18.886 2°51.691 10.9 187 10.7 101720 70
2002-10-29 10:39:26 51°18.892 2°51.719 10.6 188 10.7 101720 70
2002-10-29 10:39:31 51°18.899 2°51.746 11.6 187 10.7 101720 70
2002-10-29 10:39:36 51°18.905 2°51.773 10.7 187 10.7 101720 70
2002-10-29 10:39:41 51°18.911 2°51.801 11.7 177 10.7 101720 70
2002-10-29 10:39:46 51°18.917 2°51.828 13.1 178 10.7 101720 71
2002-10-29 10:39:50 51°18.922 2°51.85 10.9 180 10.7 101720 71
2002-10-29 10:39:56 51°18.929 2°51.883 11.3 180 10.7 101720 71
2002-10-29 10:40:01 51°18.935 2°51.911 11.3 183 10.7 101720 71
2002-10-29 10:40:06 51°18.941 2°51.938 11.8 181 10.7 101730 70
2002-10-29 10:40:10 51°18.946 2°51.96 11.6 188 10.7 101730 70
2002-10-29 10:40:16 51°18.953 2°51.993 10.9 192 10.7 101730 70
2002-10-29 10:40:21 51°18.959 2°52.021 10.5 188 10.7 101730 70
2002-10-29 10:40:26 51°18.965 2°52.048 11.6 186 10.7 101720 70
2002-10-29 10:40:31 51°18.971 2°52.076 10.9 184 10.7 101720 70
2002-10-29 10:40:36 51°18.977 2°52.103 10.5 182 10.7 101730 71
2002-10-29 10:40:41 51°18.983 2°52.131 10.6 189 10.7 101730 71
2002-10-29 10:40:46 51°18.989 2°52.158 11.1 188 10.7 101720 71
2002-10-29 10:40:50 51°18.994 2°52.18 11.5 181 10.7 101720 71
2002-10-29 10:40:56 51°19.001 2°52.213 10.9 183 10.7 101730 70
2002-10-29 10:41:01 51°19.007 2°52.24 11.5 189 10.7 101730 70
2002-10-29 10:41:06 51°19.014 2°52.267 11.8 181 10.7 101730 70
2002-10-29 10:41:10 51°19.018 2°52.289 11.3 186 10.7 101730 70
2002-10-29 10:41:16 51°19.025 2°52.322 11.9 186 10.7 101730 71
2002-10-29 10:41:21 51°19.031 2°52.35 12 183 10.7 101730 71
2002-10-29 10:41:26 51°19.037 2°52.377 10.2 190 10.7 101740 70
2002-10-29 10:41:31 51°19.043 2°52.405 11.7 184 10.7 101740 70
2002-10-29 10:41:36 51°19.049 2°52.432 11.5 181 10.7 101730 70
2002-10-29 10:41:41 51°19.056 2°52.459 10.8 184 10.7 101730 70
2002-10-29 10:41:46 51°19.061 2°52.487 10 184 10.7 101720 70
2002-10-29 10:41:50 51°19.067 2°52.509 12.3 184 10.7 101720 70
2002-10-29 10:41:56 51°19.074 2°52.542 12.6 187 10.7 101720 70
2002-10-29 10:42:01 51°19.08 2°52.569 12.8 180 10.7 101720 70
2002-10-29 10:42:06 51°19.086 2°52.596 11.4 186 10.7 101730 70
2002-10-29 10:42:11 51°19.092 2°52.623 12.5 178 10.7 101730 70
2002-10-29 10:42:16 51°19.098 2°52.65 11.8 183 10.7 101740 70
2002-10-29 10:42:21 51°19.104 2°52.678 11.6 180 10.7 101740 70
2002-10-29 10:42:26 51°19.11 2°52.705 12.4 185 10.7 101710 69
2002-10-29 10:42:30 51°19.115 2°52.727 13.7 182 10.7 101710 69
2002-10-29 10:42:36 51°19.122 2°52.76 13.6 181 10.7 101720 70
2002-10-29 10:42:41 51°19.128 2°52.788 12.5 181 10.7 101720 70
2002-10-29 10:42:46 51°19.134 2°52.815 12.2 184 10.7 101720 70
2002-10-29 10:42:50 51°19.139 2°52.837 11.4 187 10.7 101720 70
2002-10-29 10:42:56 51°19.145 2°52.87 11.3 189 10.7 101720 69
2002-10-29 10:43:01 51°19.151 2°52.898 10.2 186 10.7 101720 69
2002-10-29 10:43:06 51°19.157 2°52.925 10.7 183 10.7 101720 70
2002-10-29 10:43:11 51°19.163 2°52.953 10.8 184 10.7 101720 70
2002-10-29 10:43:16 51°19.169 2°52.98 11.2 189 10.7 101730 70
2002-10-29 10:43:21 51°19.175 2°53.008 12.5 192 10.7 101730 70
2002-10-29 10:43:26 51°19.181 2°53.035 11.4 192 10.7 101730 70
2002-10-29 10:43:31 51°19.187 2°53.062 12.1 180 10.7 101730 70
2002-10-29 10:43:36 51°19.193 2°53.09 11.4 180 10.7 101730 70
2002-10-29 10:43:41 51°19.199 2°53.117 11.3 183 10.7 101730 70
2002-10-29 10:43:46 51°19.205 2°53.144 11 183 10.7 101720 70
2002-10-29 10:43:50 51°19.21 2°53.166 12.2 188 10.7 101720 70
2002-10-29 10:43:56 51°19.217 2°53.199 11.8 182 10.7 101720 70
2002-10-29 10:44:01 51°19.223 2°53.226 12.7 179 10.7 101720 70
2002-10-29 10:44:06 51°19.229 2°53.254 12.5 179 10.7 101710 70
2002-10-29 10:44:11 51°19.235 2°53.281 10 188 10.7 101710 70
2002-10-29 10:44:15 51°19.239 2°53.303 9.9 186 10.8 101720 70
2002-10-29 10:44:21 51°19.247 2°53.336 10.7 187 10.8 101720 70
2002-10-29 10:44:26 51°19.253 2°53.363 11.8 191 10.8 101710 70
2002-10-29 10:44:30 51°19.258 2°53.385 11.7 188 10.8 101710 70
2002-10-29 10:44:36 51°19.265 2°53.418 12.2 189 10.8 101730 71
2002-10-29 10:44:41 51°19.271 2°53.445 12 189 10.8 101730 71
2002-10-29 10:44:46 51°19.277 2°53.472 12.6 187 10.8 101720 71
2002-10-29 10:44:50 51°19.281 2°53.494 12.4 183 10.8 101720 71
2002-10-29 10:44:56 51°19.289 2°53.527 13.4 182 10.8 101700 71
2002-10-29 10:45:01 51°19.295 2°53.554 12.7 180 10.8 101700 71
2002-10-29 10:45:06 51°19.301 2°53.582 11.7 183 10.8 101700 70
2002-10-29 10:45:11 51°19.307 2°53.609 10.3 188 10.8 101700 70
2002-10-29 10:45:16 51°19.313 2°53.636 11.2 184 10.7 101690 70
2002-10-29 10:45:21 51°19.319 2°53.664 11.3 190 10.7 101690 70
2002-10-29 10:45:26 51°19.324 2°53.691 10.3 186 10.7 101690 70
2002-10-29 10:45:30 51°19.329 2°53.713 10.3 187 10.7 101690 70
2002-10-29 10:45:36 51°19.336 2°53.746 12.5 191 10.7 101690 70
2002-10-29 10:45:41 51°19.343 2°53.773 10.7 184 10.7 101690 70
2002-10-29 10:45:46 51°19.349 2°53.8 11.3 185 10.8 101700 71
2002-10-29 10:45:50 51°19.354 2°53.822 13 188 10.8 101700 71
2002-10-29 10:45:56 51°19.361 2°53.854 12.8 187 10.8 101690 72
2002-10-29 10:46:01 51°19.367 2°53.882 11.3 185 10.8 101690 72
2002-10-29 10:46:06 51°19.373 2°53.909 12 187 10.8 101690 71
2002-10-29 10:46:10 51°19.378 2°53.931 11.7 182 10.8 101690 71
2002-10-29 10:46:16 51°19.385 2°53.963 11.7 184 10.7 101690 70
2002-10-29 10:46:21 51°19.391 2°53.991 11.8 181 10.7 101690 70
2002-10-29 10:46:26 51°19.397 2°54.018 11.4 186 10.7 101680 70
2002-10-29 10:46:31 51°19.403 2°54.045 12 181 10.7 101680 70
2002-10-29 10:46:36 51°19.409 2°54.072 12 193 10.7 101680 70
2002-10-29 10:46:41 51°19.415 2°54.1 13.3 191 10.7 101680 70
2002-10-29 10:46:46 51°19.421 2°54.127 12.3 189 10.7 101680 70
2002-10-29 10:46:50 51°19.426 2°54.149 11.1 188 10.7 101680 70
2002-10-29 10:46:56 51°19.433 2°54.182 12.8 184 10.7 101670 70
2002-10-29 10:47:01 51°19.439 2°54.209 11.8 193 10.7 101670 70
2002-10-29 10:47:06 51°19.445 2°54.236 11.7 191 10.7 101680 70
2002-10-29 10:47:10 51°19.45 2°54.258 11.6 192 10.7 101680 70
2002-10-29 10:47:16 51°19.457 2°54.291 13.9 189 10.7 101660 70
2002-10-29 10:47:21 51°19.463 2°54.318 10.7 188 10.7 101660 70
2002-10-29 10:47:26 51°19.469 2°54.345 13.1 192 10.7 101670 71
2002-10-29 10:47:31 51°19.475 2°54.373 13.7 190 10.7 101670 71
2002-10-29 10:47:36 51°19.481 2°54.4 11.4 184 10.7 101670 71
2002-10-29 10:47:41 51°19.487 2°54.428 11.2 189 10.7 101670 71
2002-10-29 10:47:46 51°19.493 2°54.455 11.4 187 10.7 101660 71
2002-10-29 10:47:50 51°19.497 2°54.477 12.5 191 10.7 101660 71
2002-10-29 10:47:56 51°19.505 2°54.509 14.3 189 10.7 101660 71
2002-10-29 10:48:01 51°19.511 2°54.536 12.7 185 10.7 101660 71
2002-10-29 10:48:06 51°19.517 2°54.564 12.4 185 10.7 101650 71
2002-10-29 10:48:11 51°19.523 2°54.591 11.2 185 10.7 101650 71
2002-10-29 10:48:16 51°19.529 2°54.618 10.9 184 10.7 101660 71
2002-10-29 10:48:21 51°19.535 2°54.646 12.8 187 10.7 101660 71
2002-10-29 10:48:26 51°19.54 2°54.674 13.2 186 10.7 101640 70
2002-10-29 10:48:30 51°19.545 2°54.696 11.7 185 10.7 101640 70
2002-10-29 10:48:36 51°19.552 2°54.729 12.6 185 10.7 101640 70
2002-10-29 10:48:41 51°19.558 2°54.756 12.8 185 10.7 101640 70
2002-10-29 10:48:46 51°19.564 2°54.783 10.8 188 10.7 101650 70
2002-10-29 10:48:50 51°19.568 2°54.805 13.2 185 10.7 101650 70
2002-10-29 10:48:56 51°19.576 2°54.838 13.7 185 10.7 101660 70
2002-10-29 10:49:01 51°19.582 2°54.864 11.6 180 10.7 101660 70
2002-10-29 10:49:06 51°19.587 2°54.892 11.1 189 10.7 101650 71
2002-10-29 10:49:11 51°19.594 2°54.919 13.6 184 10.7 101650 71
2002-10-29 10:49:16 51°19.599 2°54.946 10.9 186 10.7 101640 71
2002-10-29 10:49:21 51°19.605 2°54.973 11 182 10.7 101640 71
2002-10-29 10:49:26 51°19.611 2°55.001 12.7 194 10.7 101660 71
2002-10-29 10:49:29 51°19.614 2°55.017 11 192 10.7 101660 71
2002-10-29 10:49:36 51°19.622 2°55.055 12 186 10.7 101650 71
2002-10-29 10:49:41 51°19.628 2°55.082 13 185 10.7 101650 71
2002-10-29 10:49:46 51°19.634 2°55.109 13.5 182 10.7 101660 71
2002-10-29 10:49:50 51°19.639 2°55.13 12.5 184 10.7 101660 71
2002-10-29 10:49:56 51°19.647 2°55.163 12.5 184 10.8 101650 72
2002-10-29 10:50:01 51°19.653 2°55.189 11.6 188 10.8 101650 72